Location: *
(28.3744°N, 81.5492°W)
Time: 04:22:16
(UTC+00:00)

NOSS 0 Rocket - Pass Details

Date: 15 June 2025
Orbit: 934 x 954 km, 70.0° (Epoch: 11 July)

Event Time Altitude Azimuth Distance (km) Brightness Sun altitude
Rises 02:29:12 0° 337° (NNW) 3,619 8.2 -22.9°
Reaches altitude 10° 02:31:44 10° 336° (NNW) 2,669 7.2 -23.3°
Maximum altitude 02:37:55 77° 252° (WSW) 969 3.9 -24.2°
Enters shadow 02:39:43 48° 178° (S) 1,209 4.1 -24.5°
